User: anonymous   Login
Location: Unspecified
(0.0000°N, 0.0000°E)
Time: 11:38:36
(UTC+02:00)
Language:

Cosmos 1242 Rocket - Orbit

View from above orbital plane
View from above orbital plane
View from above satellite
View from above satellite

Ground track
Ground track

The orbit data is extracted from the following two-line orbital elements,

1 12155U 81008B   18173.19913258  .00000989  00000-0  31014-4 0  9998
2 12155  81.1615 345.7098 0029681 157.0015 203.2559 15.31591933 49086
Epoch (UTC): 22 June 2018 04:46:45
Eccentricity: 0.0029681
inclination: 81.1615°
perigee height: 451 km
apogee height: 491 km
right ascension of ascending node: 345.7098°
argument of perigee: 157.0015°
revolutions per day: 15.31591933
mean anomaly at epoch: 203.2559°
orbit number at epoch: 4908

The dashed part of the orbit path shows where the satellite is in the earth's shadow,  

DLR